Location: Les Coudrans
(46.1056°N, 1.1158°W)
Time: 02:10:00
(UTC+00:00)

DMSP B5D2-2 - Pass Details

Date: 23 June 2021
Orbit: 789 x 807 km, 98.3° (Epoch: 02 August)

Event Time Altitude Azimuth Distance (km) Brightness Sun altitude
Rises 20:26:54 0° 4° (N) 3,320 7.9 -4.5°
Reaches altitude 10° 20:29:31 10° 354° (N) 2,382 7.3 -4.9°
Maximum altitude 20:33:57 29° 296° (WNW) 1,442 6.4 -5.4°
Drops below altitude 10° 20:38:21 10° 238° (WSW) 2,359 6.7 -6.0°
Sets 20:40:56 0° 227° (SW) 3,282 7.3 -6.3°
